Time,TemperatureF,DewpointF,PressureIn,WindDirection,WindDirectionDegrees,WindSpeedMPH,WindSpeedGustMPH,Humidity,HourlyPrecipIn,Conditions,Clouds,dailyrainin,SoftwareType,DateUTC
2013-01-05 00:02:00,35.1,26.3,30.24,South,189,2.0,3.0,70,0.00,,,0.00,Wunderground v.1.15,2013-01-05 06:02:00,
2013-01-05 00:08:00,35.2,26.4,30.24,South,181,2.0,6.0,70,0.00,,,0.00,Wunderground v.1.15,2013-01-05 06:08:00,
2013-01-05 00:14:00,35.1,26.3,30.24,SSW,200,2.0,3.0,70,0.00,,,0.00,Wunderground v.1.15,2013-01-05 06:14:00,
2013-01-05 00:19:00,35.0,26.2,30.24,West,260,2.0,5.0,70,0.00,,,0.00,Wunderground v.1.15,2013-01-05 06:19:00,
2013-01-05 00:25:00,34.9,26.4,30.24,SSE,165,4.0,4.0,71,0.00,,,0.00,Wunderground v.1.15,2013-01-05 06:25:00,
2013-01-05 00:31:00,34.7,26.3,30.24,WNW,285,1.0,2.0,71,0.00,,,0.00,Wunderground v.1.15,2013-01-05 06:31:00,
2013-01-05 00:37:00,34.6,26.2,30.24,WSW,244,1.0,3.0,71,0.00,,,0.00,Wunderground v.1.15,2013-01-05 06:37:00,
2013-01-05 00:42:00,34.5,26.1,30.24,South,173,2.0,5.0,71,0.00,,,0.00,Wunderground v.1.15,2013-01-05 06:42:00,
2013-01-05 00:48:00,34.4,26.0,30.23,SW,235,4.0,5.0,71,0.00,,,0.00,Wunderground v.1.15,2013-01-05 06:48:00,
2013-01-05 00:54:00,34.3,26.2,30.23,South,178,1.0,4.0,72,0.00,,,0.00,Wunderground v.1.15,2013-01-05 06:54:00,
2013-01-05 01:00:00,34.2,26.1,30.23,WSW,250,0.0,1.0,72,0.00,,,0.00,Wunderground v.1.15,2013-01-05 07:00:00,
2013-01-05 01:05:00,34.2,26.1,30.24,WSW,248,1.0,1.0,72,0.00,,,0.00,Wunderground v.1.15,2013-01-05 07:05:00,
2013-01-05 01:11:00,34.2,26.4,30.24,SSW,209,0.0,1.0,73,0.00,,,0.00,Wunderground v.1.15,2013-01-05 07:11:00,
2013-01-05 01:17:00,34.3,26.5,30.24,SW,214,2.0,2.0,73,0.00,,,0.00,Wunderground v.1.15,2013-01-05 07:17:00,
2013-01-05 01:23:00,34.4,26.6,30.23,SSE,167,0.0,2.0,73,0.00,,,0.00,Wunderground v.1.15,2013-01-05 07:23:00,
2013-01-05 01:28:00,34.6,26.8,30.23,SSW,202,1.0,3.0,73,0.00,,,0.00,Wunderground v.1.15,2013-01-05 07:28:00,
2013-01-05 01:34:00,34.7,26.9,30.23,South,184,1.0,2.0,73,0.00,,,0.00,Wunderground v.1.15,2013-01-05 07:34:00,
2013-01-05 01:40:00,34.8,27.0,30.23,SW,223,3.0,3.0,73,0.00,,,0.00,Wunderground v.1.15,2013-01-05 07:40:00,
2013-01-05 01:46:00,35.1,27.0,30.23,South,188,1.0,5.0,72,0.00,,,0.00,Wunderground v.1.15,2013-01-05 07:46:00,
2013-01-05 01:52:00,35.3,27.2,30.23,SW,232,2.0,2.0,72,0.00,,,0.00,Wunderground v.1.15,2013-01-05 07:52:00,
2013-01-05 01:58:00,35.5,27.4,30.23,SW,234,1.0,3.0,72,0.00,,,0.00,Wunderground v.1.15,2013-01-05 07:58:00,
2013-01-05 02:03:00,35.6,27.1,30.23,South,172,2.0,3.0,71,0.00,,,0.00,Wunderground v.1.15,2013-01-05 08:03:00,
2013-01-05 02:08:00,35.6,27.5,30.23,WSW,240,1.0,6.0,72,0.00,,,0.00,Wunderground v.1.15,2013-01-05 08:08:00,
2013-01-05 02:13:00,35.6,27.5,30.23,SW,218,1.0,7.0,72,0.00,,,0.00,Wunderground v.1.15,2013-01-05 08:13:00,
2013-01-05 02:18:00,35.7,27.2,30.23,WSW,248,3.0,11.0,71,0.00,,,0.00,Wunderground v.1.15,2013-01-05 08:18:00,
2013-01-05 02:23:00,35.8,27.7,30.23,South,185,2.0,3.0,72,0.00,,,0.00,Wunderground v.1.15,2013-01-05 08:23:00,
2013-01-05 02:28:00,35.9,27.4,30.23,West,270,4.0,6.0,71,0.00,,,0.00,Wunderground v.1.15,2013-01-05 08:28:00,
2013-01-05 02:33:00,36.1,27.6,30.23,WSW,243,0.0,4.0,71,0.00,,,0.00,Wunderground v.1.15,2013-01-05 08:33:00,
2013-01-05 02:38:00,36.1,27.6,30.23,WNW,282,1.0,4.0,71,0.00,,,0.00,Wunderground v.1.15,2013-01-05 08:38:00,
2013-01-05 02:43:00,36.2,27.7,30.23,SW,229,0.0,5.0,71,0.00,,,0.00,Wunderground v.1.15,2013-01-05 08:43:00,
2013-01-05 02:48:00,36.2,27.7,30.22,SW,232,1.0,5.0,71,0.00,,,0.00,Wunderground v.1.15,2013-01-05 08:48:00,
2013-01-05 02:53:00,36.2,27.7,30.22,SW,219,2.0,5.0,71,0.00,,,0.00,Wunderground v.1.15,2013-01-05 08:53:00,
2013-01-05 02:58:00,36.2,27.7,30.22,SSW,200,1.0,5.0,71,0.00,,,0.00,Wunderground v.1.15,2013-01-05 08:58:00,
2013-01-05 03:03:00,36.3,27.8,30.22,South,190,3.0,3.0,71,0.00,,,0.00,Wunderground v.1.15,2013-01-05 09:03:00,
2013-01-05 03:08:00,36.2,27.7,30.22,WSW,243,1.0,4.0,71,0.00,,,0.00,Wunderground v.1.15,2013-01-05 09:08:00,
2013-01-05 03:13:00,36.2,27.7,30.22,SW,221,0.0,3.0,71,0.00,,,0.00,Wunderground v.1.15,2013-01-05 09:13:00,
2013-01-05 03:18:00,36.2,28.0,30.22,SSW,207,0.0,3.0,72,0.00,,,0.00,Wunderground v.1.15,2013-01-05 09:18:00,
2013-01-05 03:23:00,36.2,28.0,30.22,SW,221,1.0,3.0,72,0.00,,,0.00,Wunderground v.1.15,2013-01-05 09:23:00,
2013-01-05 03:28:00,36.2,28.0,30.21,South,179,1.0,3.0,72,0.00,,,0.00,Wunderground v.1.15,2013-01-05 09:28:00,
2013-01-05 03:33:00,36.2,28.0,30.21,SW,229,1.0,3.0,72,0.00,,,0.00,Wunderground v.1.15,2013-01-05 09:33:00,
2013-01-05 03:38:00,36.3,28.1,30.21,SSW,207,1.0,5.0,72,0.00,,,0.00,Wunderground v.1.15,2013-01-05 09:38:00,
2013-01-05 03:43:00,36.4,28.2,30.20,SW,231,1.0,4.0,72,0.00,,,0.00,Wunderground v.1.15,2013-01-05 09:43:00,
2013-01-05 03:48:00,36.4,28.2,30.19,SW,223,0.0,5.0,72,0.00,,,0.00,Wunderground v.1.15,2013-01-05 09:48:00,
2013-01-05 03:53:00,36.5,28.3,30.19,SSE,168,3.0,6.0,72,0.00,,,0.00,Wunderground v.1.15,2013-01-05 09:53:00,
2013-01-05 03:58:00,36.6,28.8,30.20,WSW,249,1.0,8.0,73,0.00,,,0.00,Wunderground v.1.15,2013-01-05 09:58:00,
2013-01-05 04:03:00,36.8,28.6,30.20,South,173,1.0,5.0,72,0.00,,,0.00,Wunderground v.1.15,2013-01-05 10:03:00,
2013-01-05 04:08:00,36.9,29.1,30.20,SSW,198,0.0,6.0,73,0.00,,,0.00,Wunderground v.1.15,2013-01-05 10:08:00,
2013-01-05 04:13:00,37.0,29.1,30.20,SW,232,1.0,5.0,73,0.00,,,0.00,Wunderground v.1.15,2013-01-05 10:13:00,
2013-01-05 04:18:00,37.1,29.2,30.20,SSW,198,1.0,5.0,73,0.00,,,0.00,Wunderground v.1.15,2013-01-05 10:18:00,
2013-01-05 04:23:00,37.2,29.3,30.19,WSW,242,1.0,7.0,73,0.00,,,0.00,Wunderground v.1.15,2013-01-05 10:23:00,
2013-01-05 04:28:00,37.4,29.9,30.20,SW,226,2.0,7.0,74,0.00,,,0.00,Wunderground v.1.15,2013-01-05 10:28:00,
2013-01-05 04:33:00,37.6,30.1,30.20,WSW,240,1.0,3.0,74,0.00,,,0.00,Wunderground v.1.15,2013-01-05 10:33:00,
2013-01-05 04:38:00,37.8,30.3,30.20,WSW,256,1.0,7.0,74,0.00,,,0.00,Wunderground v.1.15,2013-01-05 10:38:00,
2013-01-05 04:43:00,37.9,30.0,30.20,SSW,200,2.0,6.0,73,0.00,,,0.00,Wunderground v.1.15,2013-01-05 10:43:00,
2013-01-05 04:48:00,38.0,30.1,30.19,SW,225,2.0,7.0,73,0.00,,,0.00,Wunderground v.1.15,2013-01-05 10:48:00,
2013-01-05 04:53:00,38.1,30.2,30.19,SSW,200,2.0,5.0,73,0.00,,,0.00,Wunderground v.1.15,2013-01-05 10:53:00,
2013-01-05 04:58:00,38.1,30.5,30.19,WSW,243,0.0,6.0,74,0.00,,,0.00,Wunderground v.1.15,2013-01-05 10:58:00,
2013-01-05 05:03:00,38.1,30.5,30.19,WSW,240,1.0,6.0,74,0.00,,,0.00,Wunderground v.1.15,2013-01-05 11:03:00,
2013-01-05 05:08:00,38.1,30.5,30.19,WSW,245,6.0,7.0,74,0.00,,,0.00,Wunderground v.1.15,2013-01-05 11:08:00,
2013-01-05 05:13:00,38.1,30.5,30.19,WSW,246,2.0,7.0,74,0.00,,,0.00,Wunderground v.1.15,2013-01-05 11:13:00,
2013-01-05 05:18:00,38.0,30.8,30.18,SSE,167,0.0,7.0,75,0.00,,,0.00,Wunderground v.1.15,2013-01-05 11:18:00,
2013-01-05 05:23:00,38.0,30.8,30.18,SSE,148,5.0,7.0,75,0.00,,,0.00,Wunderground v.1.15,2013-01-05 11:23:00,
2013-01-05 05:28:00,37.9,31.0,30.18,South,173,0.0,7.0,76,0.00,,,0.00,Wunderground v.1.15,2013-01-05 11:28:00,
2013-01-05 05:33:00,37.7,30.5,30.18,SE,132,1.0,7.0,75,0.00,,,0.00,Wunderground v.1.15,2013-01-05 11:33:00,
2013-01-05 05:38:00,37.7,30.8,30.18,SW,230,2.0,7.0,76,0.00,,,0.00,Wunderground v.1.15,2013-01-05 11:38:00,
2013-01-05 05:43:00,37.7,30.8,30.18,South,183,1.0,6.0,76,0.00,,,0.00,Wunderground v.1.15,2013-01-05 11:43:00,
2013-01-05 05:48:00,37.7,30.8,30.18,WSW,242,5.0,6.0,76,0.00,,,0.00,Wunderground v.1.15,2013-01-05 11:48:00,
2013-01-05 05:53:00,37.6,30.7,30.19,WSW,252,1.0,5.0,76,0.00,,,0.00,Wunderground v.1.15,2013-01-05 11:53:00,
2013-01-05 05:58:00,37.6,31.0,30.19,SW,223,3.0,5.0,77,0.00,,,0.00,Wunderground v.1.15,2013-01-05 11:58:00,
2013-01-05 06:03:00,37.5,30.9,30.19,SW,230,1.0,5.0,77,0.00,,,0.00,Wunderground v.1.15,2013-01-05 12:03:00,
2013-01-05 06:08:00,37.5,30.9,30.19,SSE,159,0.0,5.0,77,0.00,,,0.00,Wunderground v.1.15,2013-01-05 12:08:00,
2013-01-05 06:13:00,37.4,30.8,30.19,South,188,4.0,6.0,77,0.00,,,0.00,Wunderground v.1.15,2013-01-05 12:13:00,
2013-01-05 06:18:00,37.3,30.7,30.19,SW,225,0.0,6.0,77,0.00,,,0.00,Wunderground v.1.15,2013-01-05 12:18:00,
2013-01-05 06:23:00,37.2,30.7,30.19,SW,233,1.0,5.0,77,0.00,,,0.00,Wunderground v.1.15,2013-01-05 12:23:00,
2013-01-05 06:28:00,37.1,30.9,30.19,South,181,2.0,5.0,78,0.00,,,0.00,Wunderground v.1.15,2013-01-05 12:28:00,
2013-01-05 06:33:00,37.0,30.8,30.18,South,183,2.0,4.0,78,0.00,,,0.00,Wunderground v.1.15,2013-01-05 12:33:00,
2013-01-05 06:38:00,36.8,30.6,30.19,SE,140,1.0,5.0,78,0.00,,,0.00,Wunderground v.1.15,2013-01-05 12:38:00,
2013-01-05 06:43:00,36.4,30.5,30.18,South,169,1.0,4.0,79,0.00,,,0.00,Wunderground v.1.15,2013-01-05 12:43:00,
2013-01-05 06:48:00,36.1,30.5,30.18,WSW,250,1.0,4.0,80,0.00,,,0.00,Wunderground v.1.15,2013-01-05 12:48:00,
2013-01-05 06:53:00,35.9,30.6,30.18,South,169,0.0,3.0,81,0.00,,,0.00,Wunderground v.1.15,2013-01-05 12:53:00,
2013-01-05 06:58:00,35.7,30.4,30.18,SSE,148,2.0,4.0,81,0.00,,,0.00,Wunderground v.1.15,2013-01-05 12:58:00,
2013-01-05 07:03:00,35.5,30.5,30.17,SSE,162,3.0,4.0,82,0.00,,,0.00,Wunderground v.1.15,2013-01-05 13:03:00,
2013-01-05 07:08:00,35.4,30.5,30.17,South,182,2.0,6.0,82,0.00,,,0.00,Wunderground v.1.15,2013-01-05 13:08:00,
2013-01-05 07:13:00,35.4,30.5,30.17,South,180,3.0,4.0,82,0.00,,,0.00,Wunderground v.1.15,2013-01-05 13:13:00,
2013-01-05 07:18:00,35.4,30.5,30.17,SSW,197,2.0,5.0,82,0.00,,,0.00,Wunderground v.1.15,2013-01-05 13:18:00,
2013-01-05 07:23:00,35.5,30.5,30.17,South,180,1.0,5.0,82,0.00,,,0.00,Wunderground v.1.15,2013-01-05 13:23:00,
2013-01-05 07:28:00,35.5,30.5,30.17,SW,226,2.0,5.0,82,0.00,,,0.00,Wunderground v.1.15,2013-01-05 13:28:00,
2013-01-05 07:33:00,35.5,30.8,30.17,SW,217,2.0,4.0,83,0.00,,,0.00,Wunderground v.1.15,2013-01-05 13:33:00,
2013-01-05 07:38:00,35.5,30.8,30.17,SW,221,1.0,5.0,83,0.00,,,0.00,Wunderground v.1.15,2013-01-05 13:38:00,
2013-01-05 07:44:00,35.6,30.9,30.18,South,172,1.0,5.0,83,0.00,,,0.00,Wunderground v.1.15,2013-01-05 13:44:00,
2013-01-05 07:49:00,35.7,31.3,30.17,South,172,0.0,6.0,84,0.00,,,0.00,Wunderground v.1.15,2013-01-05 13:49:00,
2013-01-05 07:54:00,35.9,31.5,30.17,SW,223,3.0,7.0,84,0.00,,,0.00,Wunderground v.1.15,2013-01-05 13:54:00,
2013-01-05 07:59:00,36.0,31.6,30.18,WSW,242,2.0,8.0,84,0.00,,,0.00,Wunderground v.1.15,2013-01-05 13:59:00,
2013-01-05 08:04:00,36.2,31.8,30.18,SW,223,1.0,5.0,84,0.00,,,0.00,Wunderground v.1.15,2013-01-05 14:04:00,
2013-01-05 08:09:00,36.2,31.8,30.18,SW,232,2.0,5.0,84,0.00,,,0.00,Wunderground v.1.15,2013-01-05 14:09:00,
2013-01-05 08:14:00,36.3,31.9,30.18,WSW,239,0.0,9.0,84,0.00,,,0.00,Wunderground v.1.15,2013-01-05 14:14:00,
2013-01-05 08:19:00,36.4,32.0,30.18,South,190,2.0,9.0,84,0.00,,,0.00,Wunderground v.1.15,2013-01-05 14:19:00,
2013-01-05 08:24:00,36.5,32.1,30.17,South,180,1.0,4.0,84,0.00,,,0.00,Wunderground v.1.15,2013-01-05 14:24:00,
2013-01-05 08:29:00,36.5,32.1,30.18,SSW,210,2.0,6.0,84,0.00,,,0.00,Wunderground v.1.15,2013-01-05 14:29:00,
2013-01-05 08:34:00,36.5,32.1,30.18,SSE,162,8.0,8.0,84,0.00,,,0.00,Wunderground v.1.15,2013-01-05 14:34:00,
2013-01-05 08:39:00,36.4,31.7,30.18,SSW,212,5.0,11.0,83,0.00,,,0.00,Wunderground v.1.15,2013-01-05 14:39:00,
2013-01-05 08:44:00,36.4,31.7,30.17,South,191,1.0,5.0,83,0.00,,,0.00,Wunderground v.1.15,2013-01-05 14:44:00,
2013-01-05 08:49:00,36.4,31.7,30.17,South,176,5.0,5.0,83,0.00,,,0.00,Wunderground v.1.15,2013-01-05 14:49:00,
2013-01-05 08:54:00,36.5,31.8,30.18,SSE,159,3.0,5.0,83,0.00,,,0.00,Wunderground v.1.15,2013-01-05 14:54:00,
2013-01-05 08:59:00,36.6,31.9,30.18,South,187,1.0,5.0,83,0.00,,,0.00,Wunderground v.1.15,2013-01-05 14:59:00,
2013-01-05 09:04:00,36.7,31.7,30.18,SSW,201,2.0,5.0,82,0.00,,,0.00,Wunderground v.1.15,2013-01-05 15:04:00,
2013-01-05 09:09:00,36.8,31.8,30.18,SSE,161,3.0,7.0,82,0.00,,,0.00,Wunderground v.1.15,2013-01-05 15:09:00,
2013-01-05 09:14:00,36.8,31.5,30.18,SE,142,3.0,8.0,81,0.00,,,0.00,Wunderground v.1.15,2013-01-05 15:14:00,
2013-01-05 09:19:00,36.9,31.3,30.18,SSE,165,4.0,8.0,80,0.00,,,0.00,Wunderground v.1.15,2013-01-05 15:19:00,
2013-01-05 09:24:00,37.0,31.4,30.18,South,178,1.0,8.0,80,0.00,,,0.00,Wunderground v.1.15,2013-01-05 15:24:00,
2013-01-05 09:29:00,37.1,31.5,30.18,SW,227,8.0,9.0,80,0.00,,,0.00,Wunderground v.1.15,2013-01-05 15:29:00,
2013-01-05 09:34:00,37.3,31.7,30.18,SW,223,2.0,5.0,80,0.00,,,0.00,Wunderground v.1.15,2013-01-05 15:34:00,
2013-01-05 09:39:00,37.5,31.6,30.18,SSE,159,5.0,10.0,79,0.00,,,0.00,Wunderground v.1.15,2013-01-05 15:39:00,
2013-01-05 09:44:00,37.8,31.9,30.18,SW,234,1.0,9.0,79,0.00,,,0.00,Wunderground v.1.15,2013-01-05 15:44:00,
2013-01-05 09:49:00,38.2,31.9,30.18,SW,225,3.0,9.0,78,0.00,,,0.00,Wunderground v.1.15,2013-01-05 15:49:00,
2013-01-05 09:54:00,38.7,32.1,30.18,West,267,6.0,8.0,77,0.00,,,0.00,Wunderground v.1.15,2013-01-05 15:54:00,
2013-01-05 09:59:00,39.2,32.3,30.18,South,181,2.0,8.0,76,0.00,,,0.00,Wunderground v.1.15,2013-01-05 15:59:00,
2013-01-05 10:04:00,39.4,32.1,30.18,SSW,213,3.0,9.0,75,0.00,,,0.00,Wunderground v.1.15,2013-01-05 16:04:00,
2013-01-05 10:09:00,39.4,32.1,30.18,West,269,4.0,9.0,75,0.00,,,0.00,Wunderground v.1.15,2013-01-05 16:09:00,
2013-01-05 10:14:00,39.7,32.1,30.18,SSE,155,3.0,9.0,74,0.00,,,0.00,Wunderground v.1.15,2013-01-05 16:14:00,
2013-01-05 10:19:00,40.2,32.6,30.18,SE,145,4.0,9.0,74,0.00,,,0.00,Wunderground v.1.15,2013-01-05 16:19:00,
2013-01-05 10:24:00,40.2,32.2,30.18,WSW,241,4.0,9.0,73,0.00,,,0.00,Wunderground v.1.15,2013-01-05 16:24:00,
2013-01-05 10:29:00,40.1,32.1,30.18,WSW,239,2.0,9.0,73,0.00,,,0.00,Wunderground v.1.15,2013-01-05 16:29:00,
2013-01-05 10:34:00,40.0,32.4,30.18,SW,215,1.0,7.0,74,0.00,,,0.00,Wunderground v.1.15,2013-01-05 16:34:00,
2013-01-05 10:39:00,39.8,31.8,30.17,SW,230,1.0,9.0,73,0.00,,,0.00,Wunderground v.1.15,2013-01-05 16:39:00,
2013-01-05 10:44:00,39.8,32.2,30.17,WSW,254,3.0,11.0,74,0.00,,,0.00,Wunderground v.1.15,2013-01-05 16:44:00,
2013-01-05 10:49:00,39.8,32.2,30.17,SSW,200,6.0,11.0,74,0.00,,,0.00,Wunderground v.1.15,2013-01-05 16:49:00,
2013-01-05 10:54:00,39.8,32.2,30.17,WNW,286,2.0,5.0,74,0.00,,,0.00,Wunderground v.1.15,2013-01-05 16:54:00,
2013-01-05 10:59:00,39.8,32.2,30.17,WSW,256,5.0,7.0,74,0.00,,,0.00,Wunderground v.1.15,2013-01-05 16:59:00,
2013-01-05 11:04:00,39.9,31.9,30.17,South,173,2.0,7.0,73,0.00,,,0.00,Wunderground v.1.15,2013-01-05 17:04:00,
2013-01-05 11:09:00,40.0,32.4,30.16,WSW,244,7.0,7.0,74,0.00,,,0.00,Wunderground v.1.15,2013-01-05 17:09:00,
2013-01-05 11:14:00,40.2,32.6,30.16,SW,228,6.0,6.0,74,0.00,,,0.00,Wunderground v.1.15,2013-01-05 17:14:00,
2013-01-05 11:19:00,40.2,32.2,30.16,SW,227,5.0,9.0,73,0.00,,,0.00,Wunderground v.1.15,2013-01-05 17:19:00,
2013-01-05 11:24:00,40.4,32.4,30.15,WSW,242,1.0,7.0,73,0.00,,,0.00,Wunderground v.1.15,2013-01-05 17:24:00,
2013-01-05 11:29:00,40.5,32.5,30.15,WSW,246,1.0,8.0,73,0.00,,,0.00,Wunderground v.1.15,2013-01-05 17:29:00,
2013-01-05 11:34:00,40.6,32.6,30.14,WSW,248,0.0,6.0,73,0.00,,,0.00,Wunderground v.1.15,2013-01-05 17:34:00,
2013-01-05 11:39:00,40.8,32.5,30.14,SSE,160,1.0,8.0,72,0.00,,,0.00,Wunderground v.1.15,2013-01-05 17:39:00,
2013-01-05 11:44:00,41.1,32.8,30.13,SSE,148,4.0,8.0,72,0.00,,,0.00,Wunderground v.1.15,2013-01-05 17:44:00,
2013-01-05 11:49:00,41.7,32.6,30.13,WSW,243,1.0,9.0,70,0.00,,,0.00,Wunderground v.1.15,2013-01-05 17:49:00,
2013-01-05 11:54:00,42.6,33.1,30.13,WSW,254,5.0,10.0,69,0.00,,,0.00,Wunderground v.1.15,2013-01-05 17:54:00,
2013-01-05 11:59:00,43.2,33.0,30.13,SW,235,2.0,11.0,67,0.00,,,0.00,Wunderground v.1.15,2013-01-05 17:59:00,
2013-01-05 12:04:00,43.4,32.8,30.13,WSW,250,9.0,11.0,66,0.00,,,0.00,Wunderground v.1.15,2013-01-05 18:04:00,
2013-01-05 12:09:00,43.6,32.6,30.12,WSW,250,4.0,15.0,65,0.00,,,0.00,Wunderground v.1.15,2013-01-05 18:09:00,
2013-01-05 12:14:00,44.0,32.6,30.12,WSW,257,3.0,8.0,64,0.00,,,0.00,Wunderground v.1.15,2013-01-05 18:14:00,
2013-01-05 12:19:00,44.6,32.8,30.11,WNW,298,5.0,10.0,63,0.00,,,0.00,Wunderground v.1.15,2013-01-05 18:19:00,
2013-01-05 12:24:00,44.7,32.5,30.12,WSW,241,8.0,9.0,62,0.00,,,0.00,Wunderground v.1.15,2013-01-05 18:24:00,
2013-01-05 12:29:00,44.3,32.5,30.11,WNW,282,2.0,11.0,63,0.00,,,0.00,Wunderground v.1.15,2013-01-05 18:29:00,
2013-01-05 12:34:00,44.4,32.6,30.11,SSW,205,2.0,8.0,63,0.00,,,0.00,Wunderground v.1.15,2013-01-05 18:34:00,
2013-01-05 12:39:00,45.0,33.2,30.11,WNW,294,6.0,8.0,63,0.00,,,0.00,Wunderground v.1.15,2013-01-05 18:39:00,
2013-01-05 12:44:00,45.3,33.0,30.11,West,261,4.0,7.0,62,0.00,,,0.00,Wunderground v.1.15,2013-01-05 18:44:00,
2013-01-05 12:49:00,44.6,32.4,30.10,SW,233,7.0,11.0,62,0.00,,,0.00,Wunderground v.1.15,2013-01-05 18:49:00,
2013-01-05 12:54:00,44.2,32.4,30.10,WSW,253,2.0,9.0,63,0.00,,,0.00,Wunderground v.1.15,2013-01-05 18:54:00,
2013-01-05 12:59:00,44.4,32.2,30.09,WSW,246,5.0,9.0,62,0.00,,,0.00,Wunderground v.1.15,2013-01-05 18:59:00,
2013-01-05 13:04:00,44.7,32.1,30.09,WSW,241,1.0,13.0,61,0.00,,,0.00,Wunderground v.1.15,2013-01-05 19:04:00,
2013-01-05 13:09:00,45.0,31.9,30.08,WSW,240,4.0,13.0,60,0.00,,,0.00,Wunderground v.1.15,2013-01-05 19:09:00,
2013-01-05 13:14:00,45.3,32.2,30.08,WSW,246,5.0,13.0,60,0.00,,,0.00,Wunderground v.1.15,2013-01-05 19:14:00,
2013-01-05 13:19:00,45.3,32.2,30.07,WSW,243,1.0,13.0,60,0.00,,,0.00,Wunderground v.1.15,2013-01-05 19:19:00,
2013-01-05 13:24:00,45.5,32.0,30.07,SW,235,2.0,11.0,59,0.00,,,0.00,Wunderground v.1.15,2013-01-05 19:24:00,
2013-01-05 13:29:00,46.2,32.7,30.07,East,82,5.0,11.0,59,0.00,,,0.00,Wunderground v.1.15,2013-01-05 19:29:00,
2013-01-05 13:34:00,46.7,32.3,30.07,SW,225,3.0,9.0,57,0.00,,,0.00,Wunderground v.1.15,2013-01-05 19:34:00,
2013-01-05 13:39:00,46.6,32.2,30.07,WSW,238,3.0,15.0,57,0.00,,,0.00,Wunderground v.1.15,2013-01-05 19:39:00,
2013-01-05 13:44:00,46.3,31.9,30.07,WSW,239,6.0,9.0,57,0.00,,,0.00,Wunderground v.1.15,2013-01-05 19:44:00,
2013-01-05 13:49:00,46.3,32.3,30.07,SW,214,2.0,9.0,58,0.00,,,0.00,Wunderground v.1.15,2013-01-05 19:49:00,
2013-01-05 13:54:00,46.8,32.4,30.06,SW,225,2.0,6.0,57,0.00,,,0.00,Wunderground v.1.15,2013-01-05 19:54:00,
2013-01-05 13:59:00,47.5,32.1,30.06,WSW,255,2.0,12.0,55,0.00,,,0.00,Wunderground v.1.15,2013-01-05 19:59:00,
2013-01-05 14:04:00,47.5,32.1,30.06,West,262,5.0,13.0,55,0.00,,,0.00,Wunderground v.1.15,2013-01-05 20:04:00,
2013-01-05 14:09:00,47.4,32.0,30.06,WNW,284,3.0,13.0,55,0.00,,,0.00,Wunderground v.1.15,2013-01-05 20:09:00,
2013-01-05 14:14:00,47.5,32.1,30.06,SW,231,3.0,9.0,55,0.00,,,0.00,Wunderground v.1.15,2013-01-05 20:14:00,
2013-01-05 14:19:00,47.6,32.2,30.06,WSW,246,4.0,9.0,55,0.00,,,0.00,Wunderground v.1.15,2013-01-05 20:19:00,
2013-01-05 14:24:00,47.7,31.9,30.06,WSW,243,3.0,10.0,54,0.00,,,0.00,Wunderground v.1.15,2013-01-05 20:24:00,
2013-01-05 14:29:00,47.6,31.8,30.06,WSW,242,6.0,11.0,54,0.00,,,0.00,Wunderground v.1.15,2013-01-05 20:29:00,
2013-01-05 14:34:00,47.6,32.2,30.06,West,268,3.0,9.0,55,0.00,,,0.00,Wunderground v.1.15,2013-01-05 20:34:00,
2013-01-05 14:39:00,47.7,31.9,30.06,WSW,239,2.0,12.0,54,0.00,,,0.00,Wunderground v.1.15,2013-01-05 20:39:00,
2013-01-05 14:44:00,47.9,32.0,30.07,SW,236,3.0,8.0,54,0.00,,,0.00,Wunderground v.1.15,2013-01-05 20:44:00,
2013-01-05 14:49:00,48.0,31.7,30.07,WSW,244,7.0,9.0,53,0.00,,,0.00,Wunderground v.1.15,2013-01-05 20:49:00,
2013-01-05 14:54:00,48.0,31.7,30.07,WSW,247,7.0,10.0,53,0.00,,,0.00,Wunderground v.1.15,2013-01-05 20:54:00,
2013-01-05 14:59:00,47.9,32.0,30.07,West,277,1.0,11.0,54,0.00,,,0.00,Wunderground v.1.15,2013-01-05 20:59:00,
2013-01-05 15:04:00,48.2,32.3,30.08,WSW,252,3.0,8.0,54,0.00,,,0.00,Wunderground v.1.15,2013-01-05 21:04:00,
2013-01-05 15:09:00,48.3,31.9,30.08,WNW,282,8.0,12.0,53,0.00,,,0.00,Wunderground v.1.15,2013-01-05 21:09:00,
2013-01-05 15:14:00,47.8,31.9,30.08,WSW,239,6.0,15.0,54,0.00,,,0.00,Wunderground v.1.15,2013-01-05 21:14:00,
2013-01-05 15:19:00,47.5,32.1,30.09,WNW,290,1.0,15.0,55,0.00,,,0.00,Wunderground v.1.15,2013-01-05 21:19:00,
2013-01-05 15:24:00,47.6,32.2,30.09,West,260,1.0,9.0,55,0.00,,,0.00,Wunderground v.1.15,2013-01-05 21:24:00,
2013-01-05 15:29:00,47.3,32.4,30.08,WNW,287,5.0,9.0,56,0.00,,,0.00,Wunderground v.1.15,2013-01-05 21:29:00,
2013-01-05 15:34:00,47.2,32.7,30.09,WSW,252,4.0,8.0,57,0.00,,,0.00,Wunderground v.1.15,2013-01-05 21:34:00,
2013-01-05 15:39:00,46.8,32.4,30.08,WSW,255,6.0,11.0,57,0.00,,,0.00,Wunderground v.1.15,2013-01-05 21:39:00,
2013-01-05 15:44:00,46.5,32.5,30.08,WSW,244,8.0,9.0,58,0.00,,,0.00,Wunderground v.1.15,2013-01-05 21:44:00,
2013-01-05 15:49:00,46.5,32.9,30.08,WSW,247,4.0,10.0,59,0.00,,,0.00,Wunderground v.1.15,2013-01-05 21:49:00,
2013-01-05 15:54:00,46.7,33.1,30.08,West,275,2.0,4.0,59,0.00,,,0.00,Wunderground v.1.15,2013-01-05 21:54:00,
2013-01-05 15:59:00,46.7,32.7,30.08,West,263,8.0,9.0,58,0.00,,,0.00,Wunderground v.1.15,2013-01-05 21:59:00,
2013-01-05 16:04:00,46.2,32.7,30.09,SSW,203,3.0,10.0,59,0.00,,,0.00,Wunderground v.1.15,2013-01-05 22:04:00,
2013-01-05 16:09:00,45.9,32.4,30.09,WNW,283,6.0,10.0,59,0.00,,,0.00,Wunderground v.1.15,2013-01-05 22:09:00,
2013-01-05 16:14:00,46.0,32.9,30.09,WSW,252,7.0,12.0,60,0.00,,,0.00,Wunderground v.1.15,2013-01-05 22:14:00,
2013-01-05 16:19:00,45.9,32.8,30.09,WSW,249,3.0,12.0,60,0.00,,,0.00,Wunderground v.1.15,2013-01-05 22:19:00,
2013-01-05 16:24:00,45.5,32.0,30.10,NW,315,5.0,12.0,59,0.00,,,0.00,Wunderground v.1.15,2013-01-05 22:24:00,
2013-01-05 16:29:00,45.2,31.7,30.10,WSW,242,4.0,12.0,59,0.00,,,0.00,Wunderground v.1.15,2013-01-05 22:29:00,
2013-01-05 16:34:00,44.8,31.3,30.10,WSW,244,1.0,7.0,59,0.00,,,0.00,Wunderground v.1.15,2013-01-05 22:34:00,
2013-01-05 16:39:00,44.3,31.3,30.10,WSW,249,4.0,13.0,60,0.00,,,0.00,Wunderground v.1.15,2013-01-05 22:39:00,
2013-01-05 16:44:00,43.8,31.2,30.10,West,259,3.0,9.0,61,0.00,,,0.00,Wunderground v.1.15,2013-01-05 22:44:00,
2013-01-05 16:49:00,43.4,30.8,30.11,NW,316,3.0,9.0,61,0.00,,,0.00,Wunderground v.1.15,2013-01-05 22:49:00,
2013-01-05 16:54:00,43.0,30.9,30.11,West,265,1.0,7.0,62,0.00,,,0.00,Wunderground v.1.15,2013-01-05 22:54:00,
2013-01-05 16:59:00,42.6,30.9,30.12,West,271,3.0,7.0,63,0.00,,,0.00,Wunderground v.1.15,2013-01-05 22:59:00,
2013-01-05 17:04:00,42.1,30.4,30.12,West,266,1.0,6.0,63,0.00,,,0.00,Wunderground v.1.15,2013-01-05 23:04:00,
2013-01-05 17:09:00,41.7,30.4,30.12,WSW,246,0.0,6.0,64,0.00,,,0.00,Wunderground v.1.15,2013-01-05 23:09:00,
2013-01-05 17:14:00,41.4,30.5,30.11,WSW,246,1.0,4.0,65,0.00,,,0.00,Wunderground v.1.15,2013-01-05 23:14:00,
2013-01-05 17:19:00,41.0,30.5,30.12,WSW,245,3.0,4.0,66,0.00,,,0.00,Wunderground v.1.15,2013-01-05 23:19:00,
2013-01-05 17:24:00,40.7,30.2,30.13,WSW,242,3.0,8.0,66,0.00,,,0.00,Wunderground v.1.15,2013-01-05 23:24:00,
2013-01-05 17:29:00,40.4,29.9,30.12,West,281,4.0,10.0,66,0.00,,,0.00,Wunderground v.1.15,2013-01-05 23:29:00,
2013-01-05 17:34:00,40.0,29.6,30.13,West,273,1.0,8.0,66,0.00,,,0.00,Wunderground v.1.15,2013-01-05 23:34:00,
2013-01-05 17:39:00,39.8,29.7,30.12,West,270,3.0,8.0,67,0.00,,,0.00,Wunderground v.1.15,2013-01-05 23:39:00,
2013-01-05 17:44:00,39.5,29.4,30.13,WSW,258,2.0,6.0,67,0.00,,,0.00,Wunderground v.1.15,2013-01-05 23:44:00,
2013-01-05 17:49:00,39.1,29.1,30.14,WSW,240,1.0,6.0,67,0.00,,,0.00,Wunderground v.1.15,2013-01-05 23:49:00,
2013-01-05 17:54:00,38.9,29.2,30.14,NNE,20,1.0,4.0,68,0.00,,,0.00,Wunderground v.1.15,2013-01-05 23:54:00,
2013-01-05 17:59:00,38.6,28.9,30.14,West,276,1.0,6.0,68,0.00,,,0.00,Wunderground v.1.15,2013-01-05 23:59:00,
2013-01-05 18:04:00,38.3,28.7,30.14,WSW,254,2.0,3.0,68,0.00,,,0.00,Wunderground v.1.15,2013-01-06 00:04:00,
2013-01-05 18:09:00,38.0,28.0,30.14,WNW,285,1.0,6.0,67,0.00,,,0.00,Wunderground v.1.15,2013-01-06 00:09:00,
2013-01-05 18:14:00,37.7,27.7,30.15,WSW,252,3.0,7.0,67,0.00,,,0.00,Wunderground v.1.15,2013-01-06 00:14:00,
2013-01-05 18:19:00,37.4,27.4,30.15,WNW,293,4.0,7.0,67,0.00,,,0.00,Wunderground v.1.15,2013-01-06 00:19:00,
2013-01-05 18:24:00,37.1,27.2,30.15,WSW,250,1.0,6.0,67,0.00,,,0.00,Wunderground v.1.15,2013-01-06 00:24:00,
2013-01-05 18:29:00,36.8,26.9,30.16,West,279,1.0,10.0,67,0.00,,,0.00,Wunderground v.1.15,2013-01-06 00:29:00,
2013-01-05 18:34:00,36.5,26.9,30.16,West,263,2.0,8.0,68,0.00,,,0.00,Wunderground v.1.15,2013-01-06 00:34:00,
2013-01-05 18:39:00,36.2,26.6,30.16,NW,321,1.0,8.0,68,0.00,,,0.00,Wunderground v.1.15,2013-01-06 00:39:00,
2013-01-05 18:44:00,35.9,26.7,30.17,West,260,2.0,6.0,69,0.00,,,0.00,Wunderground v.1.15,2013-01-06 00:44:00,
2013-01-05 18:49:00,35.5,26.3,30.17,NW,326,2.0,7.0,69,0.00,,,0.00,Wunderground v.1.15,2013-01-06 00:49:00,
2013-01-05 18:54:00,35.2,26.4,30.17,WNW,300,1.0,4.0,70,0.00,,,0.00,Wunderground v.1.15,2013-01-06 00:54:00,
2013-01-05 18:59:00,35.0,26.2,30.17,NW,306,0.0,5.0,70,0.00,,,0.00,Wunderground v.1.15,2013-01-06 00:59:00,
2013-01-05 19:04:00,34.7,25.9,30.17,WNW,286,4.0,7.0,70,0.00,,,0.00,Wunderground v.1.15,2013-01-06 01:04:00,
2013-01-05 19:09:00,34.4,25.3,30.17,West,277,1.0,8.0,69,0.00,,,0.00,Wunderground v.1.15,2013-01-06 01:09:00,
2013-01-05 19:14:00,34.3,25.2,30.17,West,270,1.0,3.0,69,0.00,,,0.00,Wunderground v.1.15,2013-01-06 01:14:00,
2013-01-05 19:19:00,34.1,25.0,30.18,WSW,256,2.0,3.0,69,0.00,,,0.00,Wunderground v.1.15,2013-01-06 01:19:00,
2013-01-05 19:24:00,33.9,24.4,30.18,West,279,2.0,5.0,68,0.00,,,0.00,Wunderground v.1.15,2013-01-06 01:24:00,
2013-01-05 19:29:00,33.7,24.3,30.18,WNW,282,1.0,5.0,68,0.00,,,0.00,Wunderground v.1.15,2013-01-06 01:29:00,
2013-01-05 19:34:00,33.6,24.2,30.18,West,281,2.0,2.0,68,0.00,,,0.00,Wunderground v.1.15,2013-01-06 01:34:00,
2013-01-05 19:39:00,33.5,24.1,30.18,West,266,3.0,4.0,68,0.00,,,0.00,Wunderground v.1.15,2013-01-06 01:39:00,
2013-01-05 19:44:00,33.4,24.0,30.19,West,267,1.0,3.0,68,0.00,,,0.00,Wunderground v.1.15,2013-01-06 01:44:00,
2013-01-05 19:49:00,33.2,24.1,30.19,WSW,253,2.0,5.0,69,0.00,,,0.00,Wunderground v.1.15,2013-01-06 01:49:00,
2013-01-05 19:54:00,33.1,24.0,30.18,WNW,293,0.0,4.0,69,0.00,,,0.00,Wunderground v.1.15,2013-01-06 01:54:00,
2013-01-05 19:59:00,33.0,24.3,30.19,West,270,1.0,4.0,70,0.00,,,0.00,Wunderground v.1.15,2013-01-06 01:59:00,
2013-01-05 20:04:00,32.8,24.1,30.19,West,275,3.0,4.0,70,0.00,,,0.00,Wunderground v.1.15,2013-01-06 02:04:00,
2013-01-05 20:09:00,32.7,24.0,30.18,WSW,253,2.0,4.0,70,0.00,,,0.00,Wunderground v.1.15,2013-01-06 02:09:00,
2013-01-05 20:14:00,32.6,23.9,30.19,WNW,283,1.0,2.0,70,0.00,,,0.00,Wunderground v.1.15,2013-01-06 02:14:00,
2013-01-05 20:19:00,32.4,23.7,30.19,WSW,250,1.0,4.0,70,0.00,,,0.00,Wunderground v.1.15,2013-01-06 02:19:00,
2013-01-05 20:24:00,32.3,23.6,30.19,WSW,242,2.0,3.0,70,0.00,,,0.00,Wunderground v.1.15,2013-01-06 02:24:00,
2013-01-05 20:29:00,32.1,23.4,30.19,WSW,248,1.0,3.0,70,0.00,,,0.00,Wunderground v.1.15,2013-01-06 02:29:00,
2013-01-05 20:35:00,32.0,23.7,30.19,North,5,1.0,3.0,71,0.00,,,0.00,Wunderground v.1.15,2013-01-06 02:35:00,
2013-01-05 20:40:00,31.9,23.6,30.19,West,276,0.0,4.0,71,0.00,,,0.00,Wunderground v.1.15,2013-01-06 02:40:00,
2013-01-05 20:45:00,31.7,23.4,30.19,West,273,0.0,2.0,71,0.00,,,0.00,Wunderground v.1.15,2013-01-06 02:45:00,
2013-01-05 20:50:00,31.7,23.7,30.19,West,273,0.0,3.0,72,0.00,,,0.00,Wunderground v.1.15,2013-01-06 02:50:00,
2013-01-05 20:55:00,31.5,23.5,30.20,West,280,2.0,3.0,72,0.00,,,0.00,Wunderground v.1.15,2013-01-06 02:55:00,
2013-01-05 21:00:00,31.4,23.4,30.20,West,259,2.0,4.0,72,0.00,,,0.00,Wunderground v.1.15,2013-01-06 03:00:00,
2013-01-05 21:05:00,31.3,23.3,30.20,West,269,1.0,3.0,72,0.00,,,0.00,Wunderground v.1.15,2013-01-06 03:05:00,
2013-01-05 21:10:00,31.2,23.5,30.20,West,269,1.0,3.0,73,0.00,,,0.00,Wunderground v.1.15,2013-01-06 03:10:00,
2013-01-05 21:15:00,31.0,23.4,30.20,WSW,253,0.0,3.0,73,0.00,,,0.00,Wunderground v.1.15,2013-01-06 03:15:00,
2013-01-05 21:20:00,30.9,23.3,30.20,WNW,290,1.0,5.0,73,0.00,,,0.00,Wunderground v.1.15,2013-01-06 03:20:00,
2013-01-05 21:25:00,30.8,23.2,30.20,WNW,283,1.0,3.0,73,0.00,,,0.00,Wunderground v.1.15,2013-01-06 03:25:00,
2013-01-05 21:30:00,30.7,23.4,30.20,WNW,284,1.0,3.0,74,0.00,,,0.00,Wunderground v.1.15,2013-01-06 03:30:00,
2013-01-05 21:35:00,30.5,23.2,30.20,WNW,294,1.0,5.0,74,0.00,,,0.00,Wunderground v.1.15,2013-01-06 03:35:00,
2013-01-05 21:40:00,30.5,23.2,30.20,WNW,294,1.0,5.0,74,0.00,,,0.00,Wunderground v.1.15,2013-01-06 03:40:00,
2013-01-05 21:45:00,30.4,23.1,30.20,West,276,2.0,3.0,74,0.00,,,0.00,Wunderground v.1.15,2013-01-06 03:45:00,
2013-01-05 21:50:00,30.4,23.1,30.20,WSW,258,1.0,6.0,74,0.00,,,0.00,Wunderground v.1.15,2013-01-06 03:50:00,
2013-01-05 21:55:00,30.4,23.1,30.20,WSW,258,2.0,3.0,74,0.00,,,0.00,Wunderground v.1.15,2013-01-06 03:55:00,
2013-01-05 22:00:00,30.3,23.0,30.20,West,276,1.0,4.0,74,0.00,,,0.00,Wunderground v.1.15,2013-01-06 04:00:00,
2013-01-05 22:05:00,30.3,23.0,30.21,West,275,0.0,3.0,74,0.00,,,0.00,Wunderground v.1.15,2013-01-06 04:05:00,
2013-01-05 22:10:00,30.3,23.0,30.20,West,268,2.0,2.0,74,0.00,,,0.00,Wunderground v.1.15,2013-01-06 04:10:00,
2013-01-05 22:15:00,30.3,23.0,30.20,West,277,1.0,3.0,74,0.00,,,0.00,Wunderground v.1.15,2013-01-06 04:15:00,
2013-01-05 22:20:00,30.3,23.3,30.21,West,277,1.0,1.0,75,0.00,,,0.00,Wunderground v.1.15,2013-01-06 04:20:00,
2013-01-05 22:25:00,30.3,23.3,30.21,West,277,2.0,3.0,75,0.00,,,0.00,Wunderground v.1.15,2013-01-06 04:25:00,
2013-01-05 22:30:00,30.3,23.3,30.21,West,275,1.0,2.0,75,0.00,,,0.00,Wunderground v.1.15,2013-01-06 04:30:00,
2013-01-05 22:35:00,30.2,23.5,30.21,West,275,1.0,2.0,76,0.00,,,0.00,Wunderground v.1.15,2013-01-06 04:35:00,
2013-01-05 22:40:00,30.2,23.2,30.21,West,275,0.0,1.0,75,0.00,,,0.00,Wunderground v.1.15,2013-01-06 04:40:00,
2013-01-05 22:45:00,30.3,23.3,30.21,West,281,1.0,4.0,75,0.00,,,0.00,Wunderground v.1.15,2013-01-06 04:45:00,
2013-01-05 22:50:00,30.3,23.6,30.21,West,267,1.0,1.0,76,0.00,,,0.00,Wunderground v.1.15,2013-01-06 04:50:00,
2013-01-05 22:55:00,30.4,23.4,30.21,NW,314,1.0,5.0,75,0.00,,,0.00,Wunderground v.1.15,2013-01-06 04:55:00,
2013-01-05 23:00:00,30.3,23.6,30.22,NW,315,1.0,1.0,76,0.00,,,0.00,Wunderground v.1.15,2013-01-06 05:00:00,
2013-01-05 23:01:00,30.3,23.6,30.21,NW,315,1.0,1.0,76,0.00,,,0.00,Wunderground v.1.15,2013-01-06 05:01:00,
2013-01-05 23:03:00,30.3,23.6,30.22,NW,315,1.0,1.0,76,0.00,,,0.00,Wunderground v.1.15,2013-01-06 05:03:00,
2013-01-05 23:07:00,30.3,23.6,30.22,West,275,1.0,4.0,76,0.00,,,0.00,Wunderground v.1.15,2013-01-06 05:07:00,
2013-01-05 23:12:00,30.3,23.6,30.22,WSW,254,2.0,4.0,76,0.00,,,0.00,Wunderground v.1.15,2013-01-06 05:12:00,
2013-01-05 23:17:00,30.3,23.6,30.22,WSW,256,0.0,4.0,76,0.00,,,0.00,Wunderground v.1.15,2013-01-06 05:17:00,
2013-01-05 23:22:00,30.4,23.7,30.22,West,277,2.0,3.0,76,0.00,,,0.00,Wunderground v.1.15,2013-01-06 05:22:00,
2013-01-05 23:27:00,30.4,23.7,30.22,West,277,1.0,3.0,76,0.00,,,0.00,Wunderground v.1.15,2013-01-06 05:27:00,
2013-01-05 23:32:00,30.5,23.8,30.22,WNW,292,0.0,3.0,76,0.00,,,0.00,Wunderground v.1.15,2013-01-06 05:32:00,
2013-01-05 23:37:00,30.6,23.9,30.22,WNW,296,2.0,5.0,76,0.00,,,0.00,Wunderground v.1.15,2013-01-06 05:37:00,
2013-01-05 23:42:00,30.6,23.9,30.22,West,274,2.0,3.0,76,0.00,,,0.00,Wunderground v.1.15,2013-01-06 05:42:00,
2013-01-05 23:47:00,30.7,24.0,30.22,West,259,0.0,4.0,76,0.00,,,0.00,Wunderground v.1.15,2013-01-06 05:47:00,
2013-01-05 23:52:00,30.7,24.0,30.22,West,281,1.0,2.0,76,0.00,,,0.00,Wunderground v.1.15,2013-01-06 05:52:00,
2013-01-05 23:57:00,30.6,23.9,30.22,West,265,1.0,3.0,76,0.00,,,0.00,Wunderground v.1.15,2013-01-06 05:57:00,